This demonstration page uses our WeatherBlox Daily Observations layout. Learn more.

Left ArrowRight Arrow

Hourly Observations for December 12, 2015

Temp ( °F °C ) Dew Point ( °F °C ) Humidity (%) Winds ( mph kmh ) Pressure ( in mb ) Visibility ( mi km ) Precip ( " mm )
12:41 am 00:41 Clear 54 12 54 12 100 100 Calm 30.18 1022 3 4 0.00 0.00
12:50 am 00:50 Clear 54 12 52 11 94 94 Calm 30.18 1022 7 11 0.00 0.00
12:53 am 00:53 Clear 54 12.2 52 11.1 93 93 Calm 30.15 1021 2 3 0.00 0.00
12:56 am 00:56 Mostly Cloudy 54 12 52 11 94 94 Calm 30.18 1022 1 1 0.00 0.00
1:04 am 01:04 Mostly Cloudy 54 12 52 11 94 94 Calm 30.18 1022 1 1 0.00 0.00
1:10 am 01:10 Mostly Cloudy 55 13 54 12 94 94 Calm 30.15 1021 1 2 0.00 0.00
1:14 am 01:14 Mostly Clear 55 13 54 12 94 94 Calm 30.15 1021 2 3 0.00 0.00
1:22 am 01:22 Mostly Cloudy 54 12 54 12 100 100 Calm 30.21 1023 1 2 0.00 0.00
1:25 am 01:25 Mostly Cloudy 53 11.7 52 11.1 96 96 Calm 30.21 1023 1 1 0.00 0.00
1:33 am 01:33 Mostly Cloudy 52 11.1 50 10 93 93 Calm 30.21 1023 0 0 0.00 0.00
1:37 am 01:37 Mostly Cloudy 53 11.7 50 10 89 89 Calm 30.21 1023 1 1 0.00 0.00
1:43 am 01:43 Mostly Cloudy 53 11.7 51 10.6 93 93 Calm 30.21 1023 1 2 0.00 0.00
1:47 am 01:47 Partly Cloudy 54 12 52 11 94 94 Calm 30.21 1023 2 3 0.00 0.00
1:53 am 01:53 Partly Cloudy 53 11.7 52 11.1 96 96 Calm 30.16 1021 8 13 0.00 0.00
1:58 am 01:58 Mostly Clear 54 12 52 11 94 94 Calm 30.21 1023 2 3 0.00 0.00
2:01 am 02:01 Mostly Cloudy 53 11.7 51 10.6 93 93 Calm 30.21 1023 1 1 0.00 0.00
2:07 am 02:07 Mostly Cloudy 52 11.1 50 10 93 93 Calm 30.21 1023 1 1 0.00 0.00
2:15 am 02:15 Mostly Cloudy 52 11.1 50 10 93 93 Calm 30.21 1023 0 0 0.00 0.00
2:20 am 02:20 Clear 52 11.1 51 10.6 97 97 Calm 30.21 1023 10 16 0.00 0.00
2:53 am 02:53 Clear 53 11.7 51 10.6 93 93 Calm 30.16 1021 10 16 0.00 0.00
3:00 am 03:00 Mostly Cloudy 52 11 50 10 94 94 Calm 30.21 1023 1 1 0.00 0.00
3:08 am 03:08 Mostly Cloudy 52 11 48 9 88 88 Calm 30.21 1023 1 1 0.00 0.00
3:26 am 03:26 Mostly Cloudy 50 10 48 9 94 94 Calm 30.21 1023 1 1 0.00 0.00
3:42 am 03:42 Mostly Cloudy 50 10 48 9 94 94 Calm 30.21 1023 0 0 0.00 0.00
3:53 am 03:53 Mostly Cloudy 52 11.1 50 10 93 93 Calm 30.16 1022 0 0 0.00 0.00
4:05 am 04:05 Mostly Cloudy 52 11.1 50 10 93 93 Calm 30.21 1023 1 1 0.00 0.00
4:08 am 04:08 Cloudy 52 11 50 10 94 94 Calm 30.21 1023 2 3 0.00 0.00
4:16 am 04:16 Mostly Cloudy 52 11 52 11 100 100 Calm 30.21 1023 1 1 0.00 0.00
4:23 am 04:23 Mostly Cloudy 50 10 49 9.4 96 96 Calm 30.21 1023 0 0 0.00 0.00
4:38 am 04:38 Mostly Cloudy 50 10 48 9 94 94 Calm 30.21 1023 1 1 0.00 0.00
4:50 am 04:50 Mostly Cloudy 52 11 50 10 94 94 Calm 30.21 1023 0 0 0.00 0.00
4:53 am 04:53 Mostly Cloudy 51 10.6 50 10 96 96 Calm 30.17 1022 0 0 0.00 0.00
5:28 am 05:28 Mostly Cloudy 50 10 48 9 94 94 Calm 30.21 1023 1 1 0.00 0.00
5:42 am 05:42 Clear 50 10 48 9 94 94 Calm 30.21 1023 8 13 0.00 0.00
5:53 am 05:53 Clear 50 10 49 9.4 96 96 Calm 30.19 1022 8 13 0.00 0.00
6:00 am 06:00 Mostly Cloudy 50 10 48 9 94 94 Calm 30.21 1023 0 0 0.00 0.00
6:53 am 06:53 Mostly Cloudy 50 10 48 8.9 93 93 Calm 30.21 1023 0 0 0.00 0.00
7:53 am 07:53 Mostly Cloudy with Fog 51 10.6 50 10 96 96 Calm 30.22 1023 5 8 0.00 0.00
8:53 am 08:53 Mostly Cloudy with Fog 53 11.7 52 11.1 96 96 Calm 30.24 1024 5 8 0.00 0.00
9:23 am 09:23 Mostly Cloudy with Mist and Fog 55 12.8 54 12.2 96 96 Calm 30.24 1024 1 1 0.00 0.00
9:31 am 09:31 Cloudy with Fog 56 13.3 54 12.2 93 93 Calm 30.24 1024 1 1 0.00 0.00
9:48 am 09:48 Cloudy with Fog 57 14 55 13 94 94 Calm 30.21 1023 0 0 0.00 0.00
9:53 am 09:53 Cloudy with Fog 56 13.3 55 12.8 97 97 Calm 30.24 1024 0 0 0.00 0.00
10:43 am 10:43 Cloudy with Mist and Fog 59 15 58 14.4 96 96 Calm 30.24 1024 1 1 0.00 0.00
10:53 am 10:53 Cloudy with Mist and Fog 60 15.6 59 15 96 96 Calm 30.25 1025 2 2 0.00 0.00
11:00 am 11:00 Cloudy with Mist and Fog 61 16 59 15 94 94 Calm 30.24 1024 3 5 0.00 0.00
11:18 am 11:18 Mostly Cloudy with Mist and Fog 60 15.6 58 14.4 93 93 WNW 3 6 30.24 1024 6 10 0.00 0.00
11:26 am 11:26 Partly Cloudy 60 15.6 58 14.4 93 93 W 3 6 30.24 1024 8 13 0.00 0.00
11:53 am 11:53 Sunny 66 18.9 59 15 78 78 NW 3 6 30.24 1024 10 16 0.00 0.00
12:53 pm 12:53 Sunny 69 20.6 58 14.4 68 68 Calm 30.22 1023 10 16 0.00 0.00
1:53 pm 13:53 Partly Cloudy 71 21.7 56 13.3 59 59 S 5 7 30.19 1022 10 16 0.00 0.00
2:53 pm 14:53 Partly Cloudy 72 22.2 55 12.8 55 55 S 6 9 30.17 1022 10 16 0.00 0.00
3:53 pm 15:53 Sunny 72 22.2 53 11.7 52 52 S 6 9 30.17 1022 10 16 0.00 0.00
4:53 pm 16:53 Sunny 71 21.7 53 11.7 53 53 SSW 5 7 30.18 1022 10 16 0.00 0.00
5:53 pm 17:53 Mostly Clear 65 18.3 54 12.2 68 68 Calm 30.19 1022 10 16 0.00 0.00
6:53 pm 18:53 Clear 61 16.1 54 12.2 78 78 Calm 30.21 1023 10 16 0.00 0.00
7:53 pm 19:53 Clear 58 14.4 54 12.2 87 87 Calm 30.21 1023 10 16 0.00 0.00
8:53 pm 20:53 Clear 57 13.9 54 12.2 90 90 Calm 30.20 1023 10 16 0.00 0.00
9:53 pm 21:53 Clear 54 12.2 52 11.1 93 93 Calm 30.21 1023 7 11 0.00 0.00
10:53 pm 22:53 Clear with Mist and Fog 53 11.7 51 10.6 93 93 Calm 30.21 1023 6 10 0.00 0.00
11:53 pm 23:53 Clear 52 11.1 49 9.4 89 89 Calm 30.21 1023 8 13 0.00 0.00

Powered by AerisWeather